{"data":{"norad_id":52538,"intl_designator":"2022-051F","name":"STARLINK-3933","alt_names":[],"object_type":"PAYLOAD","status":"ACTIVE","operator":null,"country":"US","launch_date":"2022-05-13","launch_site_code":"AFWTR","launch_vehicle":null,"mission":null,"orbit_class":"UNKNOWN","rcs_meters":null,"size_class":null,"mass_kg":null,"dimensions":null,"purposes":["comms"],"wikipedia_slug":null,"has_3d_model":false,"image_url":null,"decayed_at":null,"tle_current":{"epoch":"2026-09-19T22:58:40.916064Z","epoch_age_seconds":110238,"freshness":"FRESH","line1":"1 52538U 22051F   26262.95741801 -.00000234  00000+0  41959-5 0  9998","line2":"2 52538  53.1607 320.0121 0001199  86.1749 273.9390 15.34388020241005","mean_motion":15.3438802,"eccentricity":0.0001199,"inclination_deg":53.1607,"raan_deg":320.0121,"arg_perigee_deg":86.1749,"mean_anomaly_deg":273.939,"bstar":4.1959e-6,"rev_number":24100,"period_min":93.848490813947,"perigee_km":461.91862650933,"apogee_km":463.55906853757,"semimajor_km":6840.8758475234,"source":"CELESTRAK","updated_at":"2026-09-20T09:00:40.059012Z"}}}